Vorticity
5 5 5 5 5 5 5 5 5 6 6 6 6 6 5 5 5 5 5 5 5 5 5 5 5 5 5 5 5 5 5 5 5 5 5 5 5 5 5 6 6 6 6 6 6 6 6 6 6 7 7 7 7 7 7 7 7 7 7 6 6 6 6 6 6 6 7 7 7 7 7 7 7 7 5 6 6 6 5 5 5 5 5 5 5 5 5 6 6 6 6 6 6 6 6 5 5 6 6 6 6 6 6
5 5 5 5 5 5 5 5 5 6 6 6 6 6 5 5 5 5 5 5 5 5 5 5 5 5 5 5 5 5 5 5 5 5 5 5 5 5 5 5 5 5 5 6 6 6 6 6 6 6 6 7 7 7 7 7 7 7 7 7 6 6 6 6 6 6 6 7 7 7 7 7 7 7 6 6 6 6 6 5 5 5 5 5 5 5 5 6 6 6 6 6 6 6 6 6 6 6 6 6 6 6 6
5 5 5 5 5 5 5 5 5 5 6 6 6 6 6 5 5 5 5 5 5 5 5 5 5 5 5 5 5 5 5 5 5 5 5 5 5 5 5 5 5 5 5 6 6 6 6 6 6 6 6 6 6 6 7 7 7 7 7 7 7 6 7 7 7 7 7 7 7 7 7 7 7 7 7 7 7 7 6 6 6 6 6 5 5 5 5 5 6 6 6 6 6 6 6 6 6 6 6 6 6 6 6
5 5 5 5 5 5 5 5 5 5 6 6 6 6 6 5 5 5 5 5 5 5 5 5 5 5 5 5 5 5 5 5 5 5 5 5 5 5 5 6 6 6 6 6 6 6 6 6 6 6 6 6 6 6 6 6 6 6 7 7 6 7 7 7 7 7 7 7 7 7 7 7 7 7 7 7 7 7 7 7 6 6 6 6 6 5 5 5 5 6 6 6 6 5 5 5 6 6 6 6 6 5 5
5 5 5 5 5 5 5 4 5 5 5 6 6 6 5 5 5 5 5 5 5 5 5 5 5 6 6 6 6 6 5 5 5 5 5 5 5 5 6 6 6 6 6 6 6 6 6 6 6 6 6 6 6 6 6 6 6 6 6 6 6 6 7 7 7 8 8 8 8 8 7 7 7 7 7 7 7 7 7 7 7 6 6 6 6 6 6 6 5 5 6 6 6 5 5 5 5 5 6 6 6 5 5
5 5 5 5 5 5 5 4 4 5 5 5 5 5 5 5 5 5 5 5 5 5 5 5 5 6 6 6 6 6 6 6 5 5 5 5 5 5 6 6 6 6 6 6 6 6 6 6 6 6 6 6 6 6 6 6 6 6 6 6 6 6 7 7 7 8 8 8 8 8 8 8 8 7 7 7 7 7 7 7 7 6 6 6 6 7 6 6 6 6 5 5 5 5 5 5 5 5 5 6 6 6 5
5 5 5 5 5 5 5 4 4 4 5 5 5 5 5 5 5 5 5 5 5 5 5 6 6 6 6 6 6 6 6 6 6 6 6 6 6 6 6 6 6 6 6 6 6 6 6 6 6 6 6 6 6 6 6 6 6 6 6 6 6 6 6 7 7 7 8 8 8 9 9 9 8 8 8 7 7 7 7 7 7 6 6 5 6 6 6 6 6 6 6 5 5 5 5 5 5 5 5 5 5 6 6
5 5 5 5 5 5 5 5 4 5 5 5 5 5 5 5 5 5 5 5 5 6 6 6 6 6 6 6 6 6 6 6 6 6 6 6 6 6 6 6 6 6 6 6 6 6 6 6 6 6 6 6 6 6 5 6 6 6 6 6 6 6 6 7 7 7 7 8 8 8 9 9 9 8 8 8 7 7 7 7 7 6 6 5 5 5 5 6 6 6 6 6 6 5 5 5 5 5 4 5 5 5 5
5 5 5 5 5 5 5 5 5 5 5 5 5 5 5 5 5 5 5 5 6 6 6 6 6 6 6 6 6 6 6 6 6 6 6 6 6 6 6 6 6 6 6 6 6 6 6 6 6 6 6 6 6 6 5 6 6 6 6 6 6 6 6 7 7 7 7 7 8 8 9 9 9 9 9 8 8 7 7 7 7 6 6 6 5 5 5 5 5 6 6 6 6 6 6 5 5 5 5 5 5 5 5
6 6 6 5 5 5 5 5 5 5 5 5 5 5 5 5 5 5 5 6 6 6 6 6 6 6 6 6 6 6 6 6 6 6 6 6 6 6 6 6 6 6 6 6 6 6 6 6 6 6 6 6 6 6 6 6 6 6 6 6 6 6 6 6 6 7 7 7 7 8 8 8 9 9 9 8 8 8 7 7 7 7 7 7 6 6 5 5 5 5 6 6 6 6 6 6 5 5 5 5 5 5 5
6 6 6 6 6 6 6 5 5 5 5 5 5 5 5 5 5 5 6 6 6 6 6 6 6 6 6 6 6 6 6 6 6 6 6 6 6 6 6 6 6 6 6 6 6 6 6 6 6 6 6 6 6 6 6 6 6 6 6 6 6 6 6 6 7 7 7 7 7 7 7 8 8 9 9 9 8 8 8 8 7 7 7 7 7 6 6 6 5 5 5 6 6 6 6 6 6 6 5 5 5 5 5
6 6 6 6 6 6 6 6 6 6 5 5 5 5 5 5 5 5 6 6 6 6 6 6 6 6 6 6 6 6 6 6 6 6 6 6 6 6 5 6 6 6 6 6 6 6 6 6 6 6 6 6 6 6 6 6 6 6 6 6 6 6 6 6 6 7 7 7 7 7 7 7 8 8 9 9 8 8 8 8 8 7 7 7 7 7 6 6 6 6 5 5 5 6 6 6 6 6 6 6 6 5 5
6 6 6 6 6 6 6 6 6 6 6 6 6 6 5 5 5 5 5 6 6 6 6 6 6 6 6 6 6 6 6 6 6 6 6 6 6 6 6 6 6 6 6 6 6 6 5 5 5 6 6 6 6 6 6 6 6 6 6 6 6 6 6 6 6 6 7 7 7 7 7 7 7 8 8 8 8 8 8 8 8 8 7 7 7 7 7 6 6 6 6 5 5 5 5 5 6 6 6 6 6 6 6
6 6 6 6 6 6 6 6 6 6 6 6 6 6 6 6 6 6 6 6 6 6 6 6 6 6 6 6 6 6 6 6 6 6 6 6 6 6 6 6 6 6 6 6 5 5 5 5 5 5 6 6 6 6 6 6 6 6 6 6 6 6 6 6 6 6 6 7 7 7 8 8 8 7 8 8 8 8 8 8 8 8 8 8 8 7 7 7 7 6 6 6 6 5 5 5 5 6 6 6 6 6 6
6 6 6 6 6 6 6 6 6 6 6 6 6 6 6 6 6 6 6 6 6 6 5 5 5 5 5 5 5 5 5 6 6 6 6 6 6 6 6 6 6 6 6 6 5 5 5 5 5 5 5 5 5 5 5 6 6 6 6 6 6 6 6 6 6 6 6 7 7 7 7 8 8 8 8 8 8 8 8 8 8 8 8 8 8 8 8 7 7 7 6 6 6 6 5 5 5 6 6 6 6 6 6
6 6 6 6 6 6 6 6 6 6 6 6 6 6 6 6 6 6 6 6 6 6 6 5 5 5 5 5 5 5 5 5 5 5 5 6 6 6 6 6 6 6 6 6 6 6 5 5 5 5 5 5 5 5 5 6 6 6 6 6 6 6 6 6 6 6 6 7 7 7 7 8 8 8 8 8 8 8 8 8 8 8 8 8 8 8 8 8 8 7 7 6 6 6 6 6 6 6 6 6 6 7 7
6 6 6 6 6 6 6 6 6 6 6 6 6 6 6 6 6 6 6 6 6 6 6 5 5 5 5 5 5 4 4 4 4 5 5 5 5 5 5 5 5 5 5 6 6 6 6 6 6 6 5 6 6 6 6 6 6 6 6 6 6 6 6 6 7 7 7 7 7 7 8 8 8 9 9 9 8 8 8 8 8 8 8 8 8 8 8 8 8 8 7 7 7 6 6 6 6 6 6 6 7 7 7
7 7 6 6 6 6 6 6 6 6 6 6 6 6 6 6 6 6 6 6 6 6 5 5 5 5 5 5 5 5 4 4 4 5 5 5 5 5 5 5 5 5 5 6 6 6 6 6 6 6 6 6 6 6 6 6 6 6 6 7 7 7 7 7 7 7 7 7 7 7 8 8 8 9 9 9 9 9 9 9 9 8 8 8 8 8 8 8 8 8 8 8 7 7 7 6 6 6 7 7 7 7 8
7 7 7 6 6 6 6 6 6 6 6 6 6 6 6 6 6 6 6 6 6 6 6 6 5 5 5 5 5 5 5 5 5 5 5 5 5 5 5 5 5 5 5 6 6 6 6 7 7 7 6 6 6 6 6 6 6 6 7 7 7 7 7 7 7 7 7 7 7 8 8 8 8 8 9 9 9 9 9 9 9 9 9 9 8 8 8 8 8 8 8 8 8 7 7 7 7 7 7 7 7 8 8
7 7 7 6 6 6 6 6 6 6 6 6 6 6 6 6 6 6 6 6 6 6 6 6 6 6 5 5 5 5 5 5 5 5 5 5 5 5 5 5 5 5 5 5 6 6 6 6 7 7 7 7 7 7 7 6 6 6 7 7 7 7 7 7 7 7 7 7 8 8 8 8 8 8 8 9 9 9 9 9 9 9 9 9 9 9 9 8 8 8 8 8 8 8 8 7 7 7 7 7 8 8 8
7 7 6 6 6 6 6 6 6 6 6 6 6 6 6 6 6 6 6 6 6 6 6 6 6 6 6 6 6 6 6 6 5 5 6 5 5 5 5 5 5 5 5 5 6 6 6 6 6 6 6 7 7 7 7 7 7 7 7 7 7 7 7 7 7 7 7 7 8 8 8 8 8 8 8 8 9 9 9 9 9 9 9 9 9 9 9 9 9 9 9 8 8 8 8 8 7 7 7 8 8 8 8
7 7 6 6 6 6 6 6 6 6 6 6 6 6 6 6 6 6 6 6 6 6 6 6 6 6 6 6 6 6 6 6 6 6 6 6 6 5 5 5 5 5 5 5 5 6 6 6 6 6 6 6 7 7 7 7 7 7 7 7 7 7 7 7 7 7 7 7 7 8 8 8 8 8 8 8 8 9 9 9 9 9 9 9 9 9 9 9 9 9 9 9 9 8 8 8 8 8 8 8 8 8 8
7 6 6 6 6 6 6 6 6 6 6 6 6 6 6 6 6 6 6 6 6 6 6 6 6 6 6 6 6 6 6 6 6 6 6 6 6 6 6 6 6 5 5 5 5 5 6 6 6 6 6 6 6 7 7 7 7 8 8 8 8 8 8 7 7 7 7 7 7 8 8 8 9 8 8 8 8 8 9 9 9 9 9 9 9 9 9 9 9 9 9 9 9 9 9 8 8 8 8 8 8 8 8
6 6 6 6 6 5 5 5 5 6 6 6 5 5 5 6 6 6 6 6 6 6 6 6 6 6 6 6 6 6 6 6 6 6 6 6 6 6 6 6 6 6 5 5 5 5 5 5 6 6 6 6 6 6 6 7 7 7 8 8 8 8 8 8 8 7 7 7 7 8 8 8 8 8 8 8 8 8 8 9 9 9 9 9 9 9 9 9 9 9 9 9 9 9 9 9 8 8 8 8 8 8 8
6 6 6 6 5 5 5 5 5 5 5 5 5 5 5 6 6 6 6 6 6 6 6 6 6 6 6 6 6 6 6 6 6 6 6 5 5 5 5 5 5 5 5 5 5 5 5 5 5 6 6 6 6 6 6 6 7 7 8 8 8 9 8 8 8 8 8 8 8 8 8 8 8 8 8 8 8 8 8 8 8 9 9 9 9 9 9 9 9 9 9 9 9 9 9 9 9 9 8 8 8 8 9
6 6 6 6 5 5 5 5 5 5 5 5 5 6 6 6 6 6 6 6 6 6 6 6 6 6 6 6 6 6 6 6 5 5 5 5 5 5 5 5 5 5 5 5 5 5 5 5 5 6 6 6 6 6 6 6 6 7 7 8 8 8 8 8 9 9 8 8 8 8 8 8 8 8 8 8 8 8 8 8 8 8 9 9 9 9 9 9 9 9 9 9 9 9 9 9 9 9 9 9 9 9 9
6 6 6 5 5 5 5 5 5 5 5 5 6 6 6 6 6 6 6 6 6 6 6 6 6 6 6 6 6 5 5 5 5 5 5 5 5 5 5 5 5 5 5 5 5 5 6 6 6 6 6 6 6 6 6 6 6 7 7 7 7 8 8 8 9 9 9 9 9 8 8 8 8 8 8 8 8 8 8 8 8 8 8 8 9 9 9 9 9 9 9 9 9 9 9 9 9 9 9 9 9 9 9
6 6 5 5 5 5 5 5 5 5 5 5 6 6 6 6 6 6 6 6 6 6 6 6 6 6 5 5 5 5 5 5 5 5 5 5 5 5 5 5 5 5 5 5 5 5 6 6 6 6 6 6 6 6 6 6 6 7 7 7 7 7 7 8 8 8 9 9 9 8 8 8 8 8 7 7 7 7 7 7 7 7 8 8 8 9 9 9 9 9 9 9 9 9 9 9 9 9 9 9 9 9 9
6 5 5 5 5 5 5 5 5 5 5 5 6 6 6 6 6 6 6 6 6 6 6 6 5 5 5 5 5 5 5 5 5 5 5 5 5 5 5 5 5 5 5 5 5 5 5 6 6 6 6 6 6 6 6 6 6 7 7 7 7 7 7 7 7 8 8 8 8 8 8 8 8 8 8 7 7 7 7 7 7 7 7 7 8 8 8 9 9 9 9 9 9 9 10 9 9 9 9 9 9 9 9
5 5 5 5 5 5 5 5 5 5 5 5 6 6 6 6 6 6 6 6 6 6 5 5 5 5 5 5 5 5 4 4 4 4 5 5 5 5 5 5 5 5 5 6 6 6 5 6 6 6 6 6 7 7 6 6 6 6 7 7 7 7 7 7 7 7 7 7 8 8 8 8 8 8 8 8 7 7 7 7 7 7 7 7 7 7 8 8 9 9 9 9 9 10 10 10 10 9 9 9 9 9 9
5 5 5 5 5 5 5 5 5 5 5 6 6 6 6 6 6 6 6 5 5 5 5 5 4 4 4 4 4 4 4 4 4 4 4 4 4 4 5 5 5 5 5 5 5 6 6 5 5 6 6 6 6 6 6 6 6 6 6 6 6 6 6 6 6 6 6 7 7 7 8 8 8 8 8 8 8 7 7 7 7 7 7 7 7 7 8 8 8 9 9 9 9 9 10 10 10 10 10 9 9 8 8
5 5 5 5 5 5 5 5 5 6 6 6 6 6 6 6 6 5 5 5 5 4 4 4 4 4 4 4 4 4 4 4 4 4 4 4 4 4 4 4 5 5 5 5 5 5 5 5 5 5 5 5 5 6 6 6 6 6 6 6 6 6 6 6 6 6 6 6 6 6 7 7 8 8 8 8 8 8 8 7 7 7 7 7 7 7 7 8 8 8 9 9 9 9 9 10 10 10 10 10 9 9 9
5 5 5 5 5 5 5 5 5 6 6 6 6 6 5 6 5 5 5 5 4 4 4 4 4 4 4 4 4 4 4 4 4 4 3 4 4 4 4 4 4 4 4 5 5 5 5 5 5 5 5 5 5 5 5 5 5 5 5 5 5 5 5 5 6 6 6 6 6 6 6 6 6 7 7 7 8 8 8 8 8 8 7 7 7 7 7 7 8 8 8 9 9 9 9 10 10 10 10 10 10 9 9
5 5 5 5 5 5 5 5 5 5 5 6 6 5 5 5 5 5 4 4 4 4 4 4 4 4 4 4 4 4 4 4 4 3 3 3 3 3 4 4 4 4 4 4 5 5 5 5 5 5 5 5 5 5 5 5 5 5 5 5 5 5 5 5 5 5 5 5 5 5 5 5 6 6 6 7 7 8 8 8 8 8 8 8 8 8 8 8 8 8 8 8 9 9 9 9 10 10 10 10 10 10 9
5 5 5 5 5 5 5 5 5 5 5 5 6 5 5 5 5 4 4 4 4 4 4 4 4 4 4 4 4 3 3 3 3 3 3 3 3 3 4 4 4 4 4 4 5 5 5 5 5 5 5 5 5 5 5 5 5 5 5 5 5 5 5 5 5 5 5 6 6 5 5 5 5 6 6 6 7 7 8 8 8 8 8 8 8 8 8 8 8 8 8 8 8 9 9 9 9 10 10 10 10 10 10
5 5 5 5 5 5 5 5 5 5 5 5 5 5 5 5 5 4 4 4 4 4 4 4 4 4 4 4 3 3 3 3 3 3 3 3 3 4 4 4 4 4 4 5 5 5 5 5 5 5 6 6 6 6 6 6 6 6 6 6 6 6 6 6 6 6 6 6 6 6 6 6 6 6 6 7 7 7 7 8 8 8 8 8 8 8 8 8 8 8 8 8 8 8 9 9 9 9 10 10 10 10 10
5 5 5 5 5 5 5 5 5 5 5 5 5 5 5 5 5 5 4 4 4 4 4 4 4 3 3 3 3 3 3 3 3 3 3 3 3 4 4 4 4 4 5 5 5 5 5 6 6 6 6 6 6 6 6 6 6 6 6 6 6 6 6 6 6 6 7 7 7 7 7 7 7 7 7 8 8 8 8 8 8 8 8 8 8 8 8 9 9 9 9 8 8 8 8 9 9 9 9 10 10 10 10
5 5 5 5 5 5 5 5 5 5 6 5 5 5 5 5 5 4 4 4 4 4 4 3 3 3 3 3 3 3 3 3 3 3 3 3 4 4 4 4 4 5 5 5 5 5 6 6 6 6 6 6 6 6 6 6 6 6 7 7 7 7 7 7 7 7 8 8 8 8 8 8 9 9 9 9 9 9 9 9 9 9 9 9 9 9 9 9 9 9 9 9 9 9 8 8 8 9 9 9 10 10 10
5 5 5 4 5 5 5 5 5 5 6 6 5 5 5 4 4 4 4 4 4 4 3 3 3 3 3 3 3 3 3 3 3 3 3 4 4 4 4 4 5 5 5 5 6 6 6 6 6 6 6 7 7 7 6 7 7 7 7 7 7 7 8 8 8 8 9 9 9 9 9 10 10 10 10 10 10 10 10 10 10 10 10 10 10 10 10 10 10 10 10 10 10 9 9 9 9 9 9 9 9 10 10
5 5 4 4 5 5 5 5 5 6 6 5 5 5 5 4 4 4 4 4 4 3 3 3 3 3 3 3 3 3 3 3 3 3 4 4 4 5 5 5 6 6 6 6 6 7 7 6 7 7 7 7 7 7 7 7 7 8 8 8 8 8 8 9 9 9 9 10 10 10 10 10 10 10 10 10 10 10 10 10 10 10 10 10 10 10 10 10 11 11 11 11 11 10 10 10 9 9 9 9 9 9 10
5 5 4 5 5 5 5 5 5 5 6 5 5 4 4 4 4 4 4 3 3 3 3 3 3 3 3 3 3 3 4 3 3 4 4 4 5 5 6 6 6 7 7 7 7 7 7 7 7 7 7 7 7 7 8 8 8 8 9 9 9 9 9 9 9 9 9 9 10 10 10 10 10 10 9 9 9 9 9 9 8 8 8 9 9 9 9 10 10 10 11 11 11 11 11 11 10 10 10 9 9 9 9
5 5 5 5 5 5 5 5 5 5 5 5 5 4 4 4 4 4 3 3 3 3 3 3 2 2 3 3 3 3 4 4 4 4 4 5 5 6 6 6 7 7 7 7 7 7 7 7 7 7 8 8 8 8 9 9 9 9 9 9 9 9 9 9 9 9 9 9 9 9 9 9 8 8 8 7 7 7 7 7 7 7 7 7 7 7 8 8 8 9 9 10 10 11 11 11 11 11 10 10 10 10 9
5 5 5 5 5 5 5 5 5 5 5 5 4 4 4 4 4 4 3 3 3 3 3 3 3 2 3 3 3 3 4 4 4 5 5 5 6 6 7 7 7 7 7 7 7 7 7 7 7 8 8 8 9 9 10 10 10 10 10 9 9 8 8 8 8 8 8 8 8 8 8 8 7 7 7 7 7 7 7 6 6 6 6 6 6 6 7 7 7 8 8 9 10 10 11 11 11 11 10 10 10 10 10
5 5 5 5 5 5 5 5 5 5 5 5 4 4 4 4 4 4 3 3 3 3 3 3 3 3 2 3 3 4 4 4 5 5 6 6 6 7 7 7 7 7 7 7 7 7 7 8 8 8 8 9 9 10 10 10 10 10 9 8 8 8 8 8 8 8 8 8 8 8 8 7 7 7 7 7 7 7 7 7 6 6 6 5 5 5 6 6 6 7 8 9 9 10 10 10 10 10 10 10 10 10 10
5 5 5 5 5 5 5 5 5 5 5 4 4 4 4 4 4 3 3 3 2 2 3 3 3 3 3 3 3 4 4 5 5 5 6 7 7 7 8 8 8 7 7 8 8 8 8 8 8 8 9 10 10 10 10 10 9 9 8 8 8 8 8 8 8 8 8 8 8 7 7 7 7 8 8 8 8 7 7 6 6 5 5 4 4 4 4 5 5 6 7 8 8 9 9 9 10 10 10 10 11 11 11
5 5 5 5 5 5 5 5 5 5 5 4 4 4 4 4 4 3 3 3 2 2 2 3 3 3 4 4 4 5 6 6 6 7 8 8 8 8 8 8 8 8 8 8 8 8 8 9 9 9 10 10 10 10 9 9 9 8 8 8 8 8 8 8 9 9 8 8 7 7 6 6 7 7 7 7 7 6 5 5 4 4 4 3 3 3 4 4 5 5 5 6 7 7 7 7 8 9 9 10 11 11 11
5 5 6 6 5 5 5 5 5 5 5 4 4 4 4 4 3 3 3 3 2 2 3 3 4 5 5 6 7 7 8 8 8 8 9 9 9 9 8 8 8 9 9 8 8 8 8 9 9 10 10 10 10 9 9 8 8 8 8 8 8 8 9 9 9 9 8 7 6 6 6 6 6 6 6 5 5 4 4 3 3 3 3 3 3 3 4 4 5 5 5 6 6 6 5 6 6 7 8 9 10 11 12
6 6 6 6 6 6 5 5 5 5 5 4 4 4 4 4 3 3 3 3 3 4 4 5 5 6 7 8 9 10 10 10 9 9 9 9 9 9 9 8 8 9 9 9 9 8 8 9 9 10 10 9 9 9 9 8 8 8 8 8 8 8 9 9 9 8 7 6 6 5 5 5 5 4 4 4 3 3 3 3 3 3 3 3 4 4 4 5 5 5 6 6 5 5 4 5 5 6 6 7 9 10 11
6 6 6 6 6 6 6 6 5 5 5 4 4 4 4 3 3 3 3 3 4 4 4 5 6 6 7 9 9 10 10 10 9 9 8 8 8 8 9 9 9 9 9 9 9 8 9 9 9 9 9 9 9 9 8 8 8 8 7 7 8 8 8 8 7 7 6 6 5 5 4 4 4 3 3 2 2 3 3 3 3 4 4 4 5 5 5 5 6 6 6 6 6 5 5 5 5 5 6 6 7 9 10
6 6 6 6 6 6 6 6 5 5 5 4 4 4 4 3 3 3 2 2 3 3 3 4 5 5 6 7 8 8 8 8 7 7 8 8 7 7 7 9 9 9 9 9 9 9 9 9 9 9 9 9 9 9 8 8 8 7 7 7 7 7 7 7 6 6 6 6 5 5 4 4 3 2 2 2 3 3 4 4 4 5 5 5 5 6 6 6 7 7 8 7 7 7 8 7 6 5 5 5 6 7 8
6 6 6 6 6 6 6 6 5 5 4 4 4 4 3 3 3 3 2 2 2 2 3 3 4 5 6 6 6 6 6 6 6 6 6 8 8 7 6 5 6 7 9 10 11 12 10 10 9 9 9 9 9 9 9 9 8 8 7 7 7 7 6 6 5 5 5 5 5 4 4 3 2 2 2 3 4 4 5 5 6 6 6 6 7 7 7 8 8 9 9 9 9 8 7 8 8 8 9 7 6 5 6
6 6 6 6 6 6 6 5 5 5 4 4 4 3 3 3 3 2 2 3 3 3 3 4 5 6 7 7 7 7 7 6 7 7 7 6 7 7 6 5 6 7 7 8 10 11 11 11 11 11 11 10 9 10 10 10 9 8 7 7 7 6 5 5 5 5 5 5 4 4 3 3 2 3 3 4 5 5 6 6 7 7 8 8 8 8 9 9 10 11 11 11 11 11 10 10 9 8 9 11 11 10 8
6 6 6 6 6 5 5 5 5 4 4 4 4 3 3 3 3 3 4 4 4 5 5 6 6 6 7 8 9 9 9 8 8 8 8 6 5 5 6 8 8 8 6 5 5 8 12 12 12 13 12 10 9 10 11 10 9 8 7 7 6 6 5 5 5 5 5 5 4 3 3 3 3 4 4 5 6 7 7 8 8 9 9 10 10 10 11 11 12 12 13 13 13 14 14 13 12 10 10 10 8 8 10
6 6 6 6 5 5 5 4 4 4 4 4 4 4 3 3 4 4 4 5 5 5 6 6 6 6 6 8 8 9 9 9 8 7 7 7 5 4 5 8 8 7 7 7 6 5 9 9 9 9 10 10 11 12 12 10 8 7 7 7 6 6 6 5 5 5 5 4 4 3 3 4 4 5 6 6 7 7 8 8 9 9 10 11 12 12 13 13 14 14 14 15 15 16 16 16 16 15 13 10 10 11 14
6 6 6 5 5 5 4 4 4 4 4 4 3 3 3 4 4 4 4 4 5 5 5 5 6 6 6 6 7 8 8 8 8 7 6 7 7 7 5 5 5 7 8 11 11 9 6 6 6 7 10 12 13 12 9 7 7 7 7 6 6 5 5 5 5 4 4 4 4 4 4 5 5 6 7 7 7 8 8 8 9 10 11 12 13 14 14 15 15 15 16 16 17 17 17 18 18 19 18 16 15 12 7
6 6 5 5 5 4 4 4 4 4 4 4 4 3 3 4 4 4 5 5 5 5 5 5 6 6 6 6 6 6 7 7 7 7 6 6 7 8 7 6 7 7 7 9 9 9 8 6 8 12 16 16 13 9 4 4 6 7 8 6 5 4 4 4 4 4 4 4 4 5 5 6 6 7 7 7 8 8 8 9 9 10 11 12 13 14 15 16 16 16 17 17 17 17 18 18 19 20 20 20 19 17 11
6 5 5 5 4 4 4 4 4 4 4 4 4 4 4 4 4 3 3 4 4 4 5 5 6 6 7 7 7 6 6 6 6 7 7 6 6 7 9 10 10 9 8 7 7 8 9 12 16 20 19 14 7 0 -2 3 7 10 9 7 5 4 3 4 4 4 4 4 5 6 6 7 7 8 8 8 8 8 8 9 10 10 11 12 14 15 16 17 17 17 17 17 18 18 18 18 19 19 20 20 21 22 21
6 5 5 5 4 4 4 4 4 4 4 4 4 4 4 3 2 2 2 3 3 4 4 5 6 7 7 8 8 7 7 6 6 5 6 6 6 7 8 10 11 11 10 9 10 10 11 19 26 27 16 2 -6 -9 -4 4 10 12 10 7 5 4 4 4 4 5 5 5 6 6 7 8 8 8 7 8 8 8 8 9 10 10 11 12 14 15 16 17 18 18 19 19 19 19 19 19 19 20 21 20 21 23 23
6 5 5 5 4 4 4 4 4 4 5 5 5 4 4 4 3 2 2 3 4 4 5 6 7 8 8 8 8 8 7 7 5 4 4 6 7 8 8 9 9 9 9 10 12 15 19 26 28 23 8 -9 -15 -11 1 11 13 11 8 5 4 4 4 5 5 5 6 6 7 7 7 7 8 7 7 7 8 8 8 9 10 10 11 13 14 15 17 18 19 20 20 20 20 20 20 20 20 21 23 25 25 22 17
6 5 5 5 5 5 4 4 5 5 5 5 5 5 4 4 4 4 4 5 5 6 6 7 8 8 8 8 8 8 7 6 6 5 5 6 8 9 10 9 8 7 7 10 14 20 28 30 22 8 -8 -17 -15 -6 8 15 14 10 5 4 4 4 5 6 6 6 7 7 7 7 7 7 7 7 7 7 8 8 9 9 10 11 12 12 13 15 16 17 18 19 20 20 20 20 20 20 21 22 23 28 30 27 18
6 6 6 6 5 5 5 5 5 5 6 5 5 5 4 4 4 5 5 6 7 7 8 8 9 9 9 9 8 7 6 6 6 7 8 8 8 8 9 8 8 7 8 12 16 20 25 18 4 -11 -21 -16 -7 3 10 11 9 7 6 5 4 5 6 6 7 7 7 7 8 8 8 7 7 7 7 7 8 8 9 9 10 11 11 12 13 13 14 15 17 17 18 18 18 18 18 18 19 19 20 23 28 30 27
Height
5901 5901 5900 5900 5900 5900 5900 5900 5899 5899 5899 5899 5898 5898 5898 5898 5897 5897 5897 5896 5896 5896 5895 5895 5895 5894 5894 5893 5893 5892 5891 5891 5890 5890 5890 5889 5889 5888 5887 5887 5886 5886 5885 5885 5884 5884 5883 5883 5882 5882 5881 5881 5880 5880 5879 5879 5878 5878 5877 5877 5876 5875 5875 5875 5874 5874 5873 5873 5873 5872 5871 5871 5870 5870 5871 5870 5868 5867 5866 5866 5866 5865 5866 5865 5865 5865 5865 5864 5863 5863 5862 5862 5862 5862 5862 5861 5860 5860 5860 5860 5859 5859 5858
5900 5900 5900 5900 5900 5900 5899 5899 5899 5899 5898 5898 5898 5898 5897 5897 5897 5896 5896 5896 5895 5895 5895 5894 5894 5894 5893 5892 5892 5891 5891 5890 5890 5889 5889 5888 5888 5887 5887 5886 5885 5885 5885 5884 5883 5883 5882 5882 5881 5881 5880 5880 5879 5879 5878 5878 5877 5877 5876 5876 5875 5875 5874 5873 5873 5872 5872 5872 5871 5871 5870 5870 5870 5870 5870 5870 5868 5865 5865 5865 5865 5864 5864 5863 5863 5863 5863 5862 5862 5861 5861 5861 5860 5860 5860 5860 5859 5859 5859 5858 5858 5858 5857
5900 5900 5899 5899 5899 5899 5899 5898 5898 5898 5898 5897 5897 5897 5897 5896 5896 5896 5895 5895 5895 5894 5894 5894 5893 5893 5892 5892 5891 5891 5890 5890 5889 5889 5888 5888 5887 5887 5886 5885 5885 5884 5884 5883 5883 5882 5882 5881 5880 5880 5880 5879 5879 5878 5877 5877 5876 5876 5875 5875 5874 5874 5873 5872 5872 5871 5871 5870 5870 5870 5870 5869 5869 5868 5867 5868 5866 5865 5864 5864 5863 5863 5862 5862 5862 5862 5861 5861 5861 5860 5860 5860 5859 5859 5859 5859 5858 5857 5857 5857 5857 5856 5856
5899 5899 5899 5899 5899 5898 5898 5898 5898 5897 5897 5897 5897 5896 5896 5896 5895 5895 5895 5894 5894 5894 5893 5893 5892 5892 5891 5891 5890 5890 5890 5889 5888 5888 5887 5887 5886 5886 5885 5885 5884 5884 5883 5882 5882 5881 5881 5880 5880 5879 5879 5878 5878 5877 5877 5876 5875 5875 5874 5874 5873 5873 5872 5871 5871 5870 5870 5870 5869 5869 5868 5868 5867 5867 5867 5866 5865 5864 5863 5863 5862 5862 5861 5861 5860 5860 5860 5860 5860 5859 5859 5858 5858 5858 5857 5857 5857 5856 5856 5855 5855 5855 5855
5899 5898 5898 5898 5898 5898 5897 5897 5897 5897 5897 5896 5896 5896 5895 5895 5895 5895 5894 5894 5893 5893 5892 5892 5891 5891 5890 5890 5890 5889 5889 5888 5887 5887 5886 5886 5885 5885 5885 5884 5884 5883 5882 5882 5881 5881 5880 5880 5879 5878 5878 5877 5877 5876 5876 5875 5875 5874 5873 5873 5872 5871 5871 5870 5870 5870 5869 5869 5868 5868 5867 5867 5866 5866 5865 5865 5864 5863 5862 5862 5861 5861 5860 5860 5859 5859 5859 5858 5858 5858 5857 5857 5857 5856 5856 5856 5856 5855 5855 5855 5854 5854 5854
5898 5898 5897 5897 5897 5897 5897 5897 5896 5896 5896 5896 5895 5895 5895 5895 5894 5894 5893 5893 5893 5892 5892 5891 5891 5890 5890 5889 5889 5888 5888 5887 5887 5886 5885 5885 5885 5884 5884 5883 5883 5882 5881 5881 5880 5880 5879 5879 5878 5878 5877 5876 5876 5875 5875 5874 5874 5873 5872 5872 5871 5870 5870 5869 5869 5869 5868 5867 5867 5866 5866 5865 5865 5865 5864 5864 5863 5862 5861 5860 5860 5860 5860 5859 5858 5858 5857 5857 5856 5856 5856 5855 5855 5855 5855 5855 5855 5854 5854 5854 5853 5853 5852
5897 5897 5897 5897 5896 5896 5896 5896 5896 5895 5895 5895 5895 5895 5894 5894 5894 5893 5893 5892 5892 5891 5891 5890 5890 5890 5889 5889 5888 5887 5887 5886 5886 5885 5885 5884 5884 5883 5883 5882 5882 5881 5880 5880 5880 5879 5879 5878 5877 5877 5876 5875 5875 5874 5874 5873 5873 5872 5871 5871 5870 5869 5869 5868 5868 5867 5867 5866 5865 5865 5865 5864 5864 5863 5863 5862 5862 5861 5860 5859 5859 5859 5858 5858 5857 5857 5856 5856 5855 5855 5855 5854 5854 5854 5853 5853 5853 5853 5853 5852 5852 5852 5851
5897 5896 5896 5896 5896 5895 5895 5895 5895 5895 5895 5894 5894 5894 5894 5893 5893 5892 5892 5892 5891 5891 5890 5890 5889 5889 5888 5888 5887 5886 5886 5885 5885 5884 5884 5883 5882 5882 5881 5881 5880 5880 5880 5879 5878 5878 5877 5877 5876 5876 5875 5875 5874 5873 5873 5872 5871 5871 5870 5870 5869 5868 5868 5867 5866 5866 5865 5865 5864 5864 5863 5863 5862 5862 5861 5861 5860 5860 5859 5858 5858 5857 5857 5856 5856 5856 5855 5855 5854 5854 5853 5853 5853 5852 5852 5852 5851 5851 5851 5851 5851 5851 5850
5896 5896 5895 5895 5895 5895 5895 5895 5894 5894 5894 5894 5893 5893 5893 5892 5892 5892 5891 5891 5890 5890 5890 5889 5889 5888 5887 5887 5886 5886 5885 5885 5884 5883 5883 5882 5881 5881 5880 5880 5879 5879 5878 5878 5877 5877 5876 5876 5875 5875 5874 5874 5873 5872 5871 5871 5870 5870 5869 5869 5868 5867 5866 5865 5865 5865 5864 5863 5863 5862 5861 5861 5861 5860 5860 5859 5859 5858 5858 5857 5856 5856 5855 5855 5855 5854 5854 5854 5853 5853 5852 5852 5851 5851 5851 5850 5850 5850 5850 5850 5850 5850 5849
5895 5895 5895 5895 5894 5894 5894 5894 5893 5893 5893 5893 5893 5892 5892 5892 5891 5891 5890 5890 5890 5889 5889 5888 5888 5887 5887 5886 5885 5885 5884 5884 5883 5882 5882 5881 5880 5880 5879 5879 5878 5878 5877 5877 5876 5875 5875 5874 5874 5873 5873 5872 5871 5871 5870 5870 5869 5868 5868 5867 5866 5866 5865 5864 5864 5863 5862 5862 5861 5861 5860 5859 5859 5859 5858 5857 5857 5856 5856 5855 5855 5855 5854 5853 5853 5853 5852 5852 5851 5851 5851 5850 5850 5850 5850 5849 5849 5849 5849 5848 5848 5848 5848
5894 5894 5894 5894 5893 5893 5893 5893 5892 5892 5892 5892 5892 5891 5891 5891 5890 5890 5890 5889 5889 5888 5888 5887 5887 5886 5886 5885 5885 5884 5883 5883 5882 5881 5881 5880 5880 5879 5878 5878 5877 5876 5876 5875 5875 5874 5874 5873 5872 5872 5871 5870 5870 5869 5869 5868 5867 5867 5866 5866 5865 5865 5864 5863 5862 5861 5861 5860 5860 5859 5859 5858 5857 5857 5856 5856 5855 5855 5854 5854 5853 5853 5852 5852 5851 5851 5850 5850 5850 5850 5849 5849 5849 5848 5848 5848 5848 5847 5847 5847 5847 5847 5846
5893 5893 5893 5893 5892 5892 5892 5892 5891 5891 5891 5891 5891 5890 5890 5890 5890 5889 5889 5888 5888 5887 5887 5886 5886 5885 5885 5884 5884 5883 5882 5882 5881 5880 5880 5879 5878 5878 5877 5876 5876 5875 5875 5874 5874 5873 5872 5871 5871 5870 5870 5869 5869 5868 5867 5867 5866 5865 5865 5865 5864 5863 5863 5862 5861 5860 5860 5859 5858 5858 5857 5856 5856 5855 5855 5854 5854 5853 5852 5852 5851 5851 5851 5850 5850 5850 5849 5849 5848 5848 5848 5847 5847 5847 5847 5846 5846 5846 5846 5845 5845 5845 5845
5893 5892 5892 5892 5892 5891 5891 5891 5890 5890 5890 5890 5890 5889 5889 5889 5888 5888 5888 5887 5887 5886 5886 5885 5885 5884 5884 5883 5883 5882 5881 5881 5880 5880 5879 5878 5877 5877 5876 5875 5875 5874 5874 5873 5872 5872 5871 5870 5870 5869 5868 5868 5867 5866 5866 5865 5865 5864 5864 5863 5863 5862 5861 5861 5860 5859 5859 5857 5857 5856 5855 5855 5854 5854 5853 5852 5852 5851 5851 5850 5850 5850 5849 5849 5849 5848 5848 5847 5847 5847 5846 5846 5845 5845 5845 5845 5845 5845 5844 5844 5844 5844 5844
5892 5892 5892 5891 5891 5891 5890 5890 5890 5890 5889 5889 5889 5888 5888 5888 5887 5887 5886 5886 5886 5885 5885 5884 5884 5883 5883 5882 5881 5881 5880 5880 5879 5879 5878 5877 5876 5875 5875 5874 5874 5873 5873 5872 5871 5870 5870 5869 5868 5868 5867 5866 5866 5865 5865 5864 5864 5863 5862 5862 5861 5861 5860 5860 5859 5858 5859 5856 5855 5855 5854 5853 5853 5852 5851 5851 5850 5850 5849 5849 5848 5848 5847 5847 5847 5846 5846 5846 5845 5845 5845 5845 5844 5844 5844 5843 5843 5843 5843 5843 5842 5842 5842
5892 5891 5891 5891 5890 5890 5890 5890 5889 5889 5889 5888 5888 5887 5887 5887 5886 5886 5885 5885 5885 5884 5884 5883 5882 5882 5881 5881 5880 5880 5879 5879 5878 5878 5877 5876 5875 5875 5874 5873 5873 5872 5871 5871 5870 5869 5869 5868 5867 5866 5866 5865 5865 5864 5863 5863 5862 5862 5861 5860 5860 5859 5859 5858 5857 5857 5857 5855 5854 5853 5853 5852 5851 5850 5850 5849 5849 5848 5848 5847 5847 5846 5846 5845 5845 5845 5845 5845 5844 5844 5844 5843 5843 5842 5842 5842 5842 5841 5841 5841 5841 5841 5840
5891 5890 5890 5890 5890 5890 5889 5889 5889 5888 5888 5888 5887 5887 5886 5886 5885 5885 5885 5884 5884 5883 5882 5882 5881 5881 5880 5880 5879 5878 5878 5877 5877 5876 5876 5875 5875 5874 5873 5872 5872 5871 5870 5870 5869 5868 5868 5867 5866 5865 5865 5864 5863 5863 5862 5861 5861 5860 5860 5859 5858 5858 5857 5856 5856 5855 5855 5854 5853 5852 5851 5850 5850 5849 5848 5848 5847 5847 5846 5846 5845 5845 5845 5844 5844 5843 5843 5843 5843 5842 5842 5842 5841 5841 5840 5840 5840 5840 5840 5840 5839 5839 5839
5890 5890 5890 5889 5889 5889 5888 5888 5888 5887 5887 5887 5886 5886 5885 5885 5885 5884 5884 5883 5882 5882 5881 5881 5880 5880 5879 5878 5878 5877 5876 5876 5875 5875 5875 5874 5874 5873 5872 5871 5871 5870 5869 5869 5868 5867 5867 5866 5865 5864 5864 5863 5862 5861 5861 5860 5860 5859 5858 5858 5857 5856 5855 5855 5854 5853 5853 5852 5851 5850 5850 5849 5848 5847 5847 5846 5846 5845 5845 5844 5844 5843 5843 5843 5842 5842 5841 5841 5841 5841 5840 5840 5840 5840 5839 5839 5838 5838 5838 5838 5837 5837 5837
5889 5889 5889 5888 5888 5888 5887 5887 5887 5886 5886 5886 5885 5885 5885 5884 5884 5883 5883 5882 5881 5881 5880 5880 5879 5878 5878 5877 5876 5876 5875 5875 5874 5874 5873 5873 5872 5872 5871 5870 5870 5869 5868 5868 5867 5866 5866 5865 5864 5863 5863 5862 5861 5860 5860 5859 5858 5858 5857 5856 5855 5855 5854 5853 5852 5852 5851 5850 5850 5849 5848 5847 5847 5846 5845 5845 5844 5844 5843 5843 5842 5842 5841 5841 5840 5840 5840 5840 5839 5839 5839 5839 5838 5838 5837 5837 5837 5836 5836 5836 5836 5835 5835
5888 5888 5888 5887 5887 5887 5887 5886 5886 5885 5885 5885 5884 5884 5884 5883 5882 5882 5881 5881 5880 5880 5879 5879 5878 5877 5877 5876 5875 5875 5874 5874 5873 5873 5872 5871 5871 5870 5870 5869 5868 5868 5867 5866 5866 5865 5865 5864 5863 5863 5862 5861 5860 5859 5858 5858 5857 5856 5855 5855 5854 5853 5852 5852 5851 5850 5850 5849 5848 5847 5846 5846 5845 5845 5844 5843 5843 5842 5842 5841 5841 5840 5840 5840 5839 5839 5838 5838 5838 5837 5837 5837 5836 5836 5836 5835 5835 5835 5835 5834 5834 5834 5834
5887 5887 5887 5886 5886 5886 5885 5885 5885 5885 5884 5884 5883 5883 5882 5882 5881 5881 5880 5880 5879 5879 5878 5878 5877 5876 5876 5875 5874 5874 5873 5872 5872 5871 5871 5870 5870 5869 5868 5867 5867 5866 5865 5865 5864 5864 5863 5863 5862 5861 5860 5860 5859 5858 5857 5856 5855 5855 5854 5853 5852 5852 5851 5850 5849 5849 5848 5847 5846 5846 5845 5845 5844 5843 5843 5842 5842 5841 5840 5840 5840 5839 5839 5838 5838 5837 5837 5837 5836 5836 5835 5835 5835 5835 5834 5834 5833 5833 5833 5832 5832 5832 5832
5886 5886 5885 5885 5885 5885 5885 5884 5884 5884 5883 5883 5882 5882 5881 5881 5880 5880 5880 5879 5878 5878 5877 5876 5876 5875 5875 5874 5873 5873 5872 5871 5871 5870 5870 5869 5869 5868 5867 5866 5865 5865 5864 5863 5863 5862 5862 5861 5860 5860 5859 5859 5858 5857 5856 5855 5854 5853 5852 5851 5851 5850 5849 5848 5848 5847 5846 5845 5845 5844 5844 5843 5843 5842 5841 5841 5840 5840 5839 5839 5838 5838 5837 5837 5836 5836 5835 5835 5835 5834 5834 5833 5833 5833 5832 5832 5832 5831 5831 5831 5830 5830 5830
5885 5885 5885 5884 5884 5884 5883 5883 5883 5882 5882 5881 5881 5881 5880 5880 5879 5879 5878 5878 5877 5877 5876 5875 5875 5874 5873 5873 5872 5871 5871 5870 5870 5869 5869 5868 5867 5866 5866 5865 5864 5863 5862 5862 5861 5860 5860 5859 5859 5858 5858 5857 5856 5855 5855 5854 5853 5852 5851 5850 5849 5848 5847 5847 5846 5845 5845 5844 5843 5843 5842 5842 5841 5840 5840 5839 5839 5838 5838 5837 5837 5836 5836 5835 5835 5834 5834 5833 5833 5833 5832 5832 5831 5831 5830 5830 5830 5830 5829 5829 5829 5828 5828
5884 5884 5883 5883 5883 5882 5882 5882 5881 5881 5881 5880 5880 5880 5879 5879 5878 5878 5877 5877 5876 5875 5875 5874 5874 5873 5872 5871 5871 5870 5870 5869 5868 5868 5867 5866 5866 5865 5865 5864 5863 5862 5861 5860 5860 5859 5858 5858 5857 5856 5855 5855 5855 5854 5853 5852 5851 5850 5849 5848 5848 5847 5846 5845 5844 5844 5843 5842 5842 5841 5840 5840 5840 5839 5838 5838 5837 5836 5836 5835 5835 5835 5834 5834 5833 5833 5832 5831 5831 5831 5830 5830 5830 5829 5829 5828 5828 5827 5827 5827 5827 5826 5826
5883 5882 5882 5882 5882 5881 5881 5880 5880 5880 5880 5879 5879 5878 5878 5877 5877 5876 5876 5875 5875 5874 5874 5873 5872 5872 5871 5870 5870 5869 5868 5868 5867 5866 5866 5865 5865 5864 5863 5863 5862 5861 5860 5859 5858 5857 5857 5856 5855 5855 5854 5853 5853 5852 5851 5850 5850 5849 5848 5847 5846 5845 5844 5843 5843 5842 5841 5840 5840 5840 5839 5838 5838 5837 5837 5836 5835 5835 5834 5834 5833 5833 5832 5832 5831 5831 5830 5830 5829 5829 5828 5828 5828 5827 5827 5826 5826 5825 5825 5825 5825 5825 5824
5881 5881 5881 5881 5880 5880 5880 5879 5879 5879 5878 5878 5877 5877 5876 5876 5876 5875 5875 5874 5874 5873 5872 5872 5871 5870 5870 5869 5868 5868 5867 5866 5866 5865 5864 5864 5863 5862 5862 5861 5860 5860 5859 5858 5857 5856 5855 5855 5854 5853 5852 5851 5851 5850 5849 5848 5848 5847 5846 5845 5845 5844 5843 5842 5841 5840 5840 5839 5838 5837 5837 5836 5836 5835 5835 5834 5834 5833 5832 5832 5831 5831 5830 5830 5830 5829 5828 5828 5827 5827 5826 5826 5825 5825 5825 5824 5824 5824 5823 5823 5823 5823 5822
5880 5880 5880 5879 5879 5879 5878 5878 5878 5877 5877 5876 5876 5875 5875 5875 5874 5874 5873 5873 5872 5872 5871 5870 5870 5869 5869 5868 5867 5866 5866 5865 5864 5864 5863 5862 5861 5861 5860 5860 5859 5859 5858 5857 5856 5855 5854 5853 5852 5851 5850 5850 5849 5848 5847 5847 5846 5845 5844 5844 5843 5842 5841 5840 5840 5839 5838 5837 5836 5835 5835 5835 5834 5834 5833 5833 5832 5831 5831 5830 5830 5829 5829 5828 5827 5827 5826 5826 5825 5825 5824 5824 5823 5823 5823 5822 5822 5822 5821 5821 5821 5821 5820
5879 5878 5878 5878 5878 5877 5877 5877 5876 5876 5875 5875 5875 5874 5874 5873 5873 5872 5872 5871 5871 5870 5870 5869 5869 5868 5867 5866 5866 5865 5864 5864 5863 5862 5861 5861 5860 5860 5859 5858 5858 5857 5856 5855 5855 5854 5853 5851 5850 5850 5849 5848 5847 5846 5846 5845 5844 5843 5843 5842 5841 5841 5840 5839 5838 5837 5837 5836 5835 5834 5834 5833 5832 5832 5831 5831 5830 5830 5829 5828 5828 5827 5826 5826 5825 5825 5825 5824 5823 5823 5822 5822 5821 5821 5820 5820 5820 5820 5819 5819 5819 5819 5819
5877 5877 5877 5876 5876 5876 5875 5875 5875 5875 5874 5874 5873 5873 5873 5872 5872 5871 5870 5870 5870 5869 5868 5868 5867 5866 5866 5865 5864 5864 5863 5862 5861 5860 5860 5859 5859 5858 5857 5857 5856 5855 5855 5854 5854 5853 5851 5850 5849 5848 5847 5846 5846 5845 5844 5843 5843 5842 5841 5840 5840 5839 5838 5837 5837 5836 5835 5835 5834 5833 5832 5831 5830 5830 5829 5829 5828 5828 5827 5826 5826 5825 5825 5824 5824 5823 5822 5822 5821 5821 5820 5820 5820 5819 5819 5818 5818 5818 5817 5817 5817 5817 5816
5876 5876 5875 5875 5875 5875 5874 5874 5873 5873 5873 5873 5872 5872 5871 5871 5870 5870 5869 5869 5868 5867 5867 5866 5866 5865 5864 5864 5863 5862 5861 5860 5860 5859 5859 5858 5857 5856 5856 5855 5855 5854 5854 5853 5852 5851 5850 5849 5848 5847 5846 5845 5844 5843 5843 5842 5841 5840 5840 5839 5838 5837 5836 5835 5835 5834 5834 5833 5832 5831 5830 5830 5829 5828 5827 5827 5826 5825 5825 5824 5824 5823 5823 5822 5821 5821 5820 5820 5820 5819 5819 5818 5818 5817 5817 5816 5816 5815 5815 5815 5815 5815 5815
5875 5874 5874 5874 5873 5873 5873 5872 5872 5872 5871 5871 5871 5870 5870 5870 5869 5868 5868 5867 5867 5866 5865 5865 5864 5864 5863 5862 5861 5860 5860 5859 5858 5858 5857 5856 5855 5855 5854 5853 5853 5852 5852 5851 5850 5850 5849 5848 5847 5846 5845 5844 5843 5842 5841 5840 5840 5839 5838 5837 5836 5835 5835 5834 5833 5832 5832 5831 5830 5830 5829 5828 5827 5826 5825 5825 5824 5824 5823 5822 5822 5821 5821 5820 5820 5819 5819 5818 5818 5817 5817 5816 5816 5815 5815 5815 5814 5814 5813 5813 5813 5813 5812
5873 5873 5872 5872 5872 5871 5871 5871 5870 5870 5870 5870 5869 5869 5869 5868 5868 5867 5866 5866 5865 5865 5864 5863 5863 5862 5861 5860 5860 5859 5858 5857 5857 5856 5855 5855 5854 5853 5853 5852 5851 5850 5850 5850 5849 5848 5847 5846 5845 5845 5843 5842 5841 5840 5839 5839 5838 5837 5836 5836 5835 5834 5833 5832 5831 5830 5830 5829 5829 5828 5827 5827 5826 5825 5824 5823 5822 5822 5821 5820 5820 5819 5819 5818 5818 5817 5816 5816 5815 5815 5815 5815 5814 5814 5813 5813 5812 5812 5811 5811 5811 5811 5810
5872 5871 5871 5870 5870 5870 5870 5869 5869 5869 5869 5868 5868 5868 5867 5867 5866 5866 5865 5865 5864 5863 5862 5862 5861 5860 5860 5859 5858 5857 5856 5856 5855 5854 5854 5853 5852 5851 5851 5850 5849 5849 5848 5847 5847 5846 5845 5845 5844 5843 5842 5841 5840 5839 5838 5837 5836 5835 5835 5834 5833 5832 5831 5831 5830 5829 5828 5827 5827 5826 5826 5825 5824 5823 5822 5822 5821 5820 5819 5819 5818 5817 5817 5816 5816 5815 5815 5814 5814 5813 5813 5812 5812 5812 5811 5811 5810 5810 5810 5809 5809 5809 5808
5870 5870 5870 5869 5869 5868 5868 5868 5867 5867 5867 5867 5866 5866 5866 5865 5865 5864 5864 5863 5862 5861 5861 5860 5859 5859 5858 5857 5856 5855 5855 5854 5853 5852 5852 5851 5850 5850 5849 5848 5847 5847 5846 5845 5845 5844 5843 5842 5841 5840 5840 5839 5838 5837 5836 5835 5835 5834 5833 5832 5831 5831 5830 5829 5828 5827 5826 5826 5825 5824 5824 5823 5822 5822 5821 5820 5819 5818 5818 5817 5816 5815 5815 5814 5814 5813 5813 5812 5812 5811 5811 5810 5810 5810 5809 5809 5808 5808 5807 5807 5807 5806 5806
5869 5869 5868 5868 5867 5867 5867 5866 5866 5866 5866 5865 5865 5865 5864 5864 5863 5863 5862 5861 5860 5860 5859 5858 5857 5857 5856 5855 5854 5853 5853 5852 5851 5850 5850 5849 5848 5848 5847 5846 5845 5845 5844 5843 5843 5842 5841 5840 5839 5838 5837 5837 5836 5835 5834 5833 5832 5832 5831 5830 5830 5829 5828 5827 5826 5826 5825 5824 5823 5822 5822 5821 5820 5820 5819 5818 5817 5817 5816 5815 5815 5814 5813 5812 5812 5811 5810 5810 5810 5809 5809 5808 5808 5807 5807 5806 5806 5806 5805 5805 5805 5804 5804
5867 5867 5867 5866 5866 5866 5865 5865 5865 5865 5864 5864 5864 5863 5862 5862 5861 5861 5860 5859 5858 5858 5857 5856 5855 5855 5854 5853 5852 5851 5850 5850 5849 5848 5848 5847 5846 5845 5845 5844 5843 5843 5842 5841 5840 5840 5839 5838 5837 5836 5835 5834 5834 5833 5832 5831 5830 5829 5829 5828 5827 5827 5826 5825 5825 5824 5823 5822 5821 5820 5820 5819 5818 5818 5817 5816 5816 5815 5814 5814 5813 5812 5811 5810 5810 5809 5809 5808 5807 5807 5806 5806 5805 5805 5805 5804 5804 5804 5803 5803 5802 5802 5802
5866 5865 5865 5865 5865 5864 5864 5863 5863 5863 5862 5862 5862 5861 5860 5860 5859 5858 5858 5857 5856 5855 5855 5854 5853 5853 5852 5851 5850 5849 5849 5848 5847 5846 5845 5845 5844 5843 5842 5842 5841 5840 5840 5839 5838 5837 5836 5835 5835 5834 5833 5832 5831 5830 5830 5829 5828 5827 5826 5825 5825 5824 5824 5823 5822 5822 5821 5820 5819 5818 5817 5817 5816 5815 5815 5814 5814 5813 5812 5812 5811 5810 5809 5809 5808 5807 5806 5806 5805 5805 5804 5804 5803 5803 5802 5802 5801 5801 5801 5800 5800 5800 5800
5864 5864 5864 5863 5863 5862 5862 5862 5861 5861 5861 5860 5860 5859 5858 5858 5857 5856 5855 5855 5854 5853 5852 5852 5851 5850 5850 5849 5848 5847 5847 5846 5845 5844 5844 5843 5842 5841 5840 5840 5839 5838 5838 5837 5836 5835 5834 5833 5832 5831 5831 5830 5829 5828 5827 5826 5825 5825 5824 5823 5822 5822 5821 5820 5820 5819 5819 5818 5817 5816 5815 5815 5814 5813 5813 5812 5811 5811 5810 5810 5809 5808 5808 5807 5806 5805 5805 5804 5803 5803 5802 5802 5801 5800 5800 5800 5799 5799 5798 5798 5798 5797 5797
5863 5862 5862 5861 5861 5861 5860 5860 5860 5860 5859 5859 5858 5857 5856 5856 5855 5854 5853 5852 5852 5851 5850 5850 5849 5849 5848 5847 5846 5845 5845 5844 5843 5842 5842 5841 5840 5839 5838 5838 5837 5836 5835 5835 5834 5833 5832 5831 5830 5830 5829 5828 5827 5826 5825 5824 5823 5822 5821 5821 5820 5819 5819 5818 5817 5817 5816 5815 5815 5814 5813 5812 5812 5811 5810 5810 5809 5809 5808 5808 5807 5806 5805 5805 5804 5803 5802 5802 5801 5801 5800 5800 5799 5798 5798 5797 5797 5796 5796 5795 5795 5795 5795
5861 5861 5860 5860 5860 5859 5859 5858 5858 5858 5857 5857 5856 5855 5855 5854 5853 5853 5852 5851 5850 5849 5848 5848 5847 5846 5845 5845 5844 5843 5843 5842 5841 5840 5840 5839 5838 5837 5836 5836 5835 5834 5834 5833 5832 5831 5830 5829 5828 5827 5826 5825 5825 5824 5823 5822 5821 5820 5819 5819 5818 5817 5816 5815 5815 5814 5814 5813 5813 5812 5811 5810 5810 5809 5808 5808 5807 5806 5806 5805 5805 5804 5803 5803 5802 5801 5800 5800 5799 5799 5798 5797 5796 5796 5795 5795 5794 5794 5793 5793 5793 5792 5792
5860 5859 5859 5858 5858 5857 5857 5856 5856 5856 5855 5855 5854 5854 5853 5853 5852 5851 5850 5849 5848 5848 5847 5846 5845 5844 5843 5843 5842 5841 5840 5840 5839 5838 5837 5836 5836 5835 5834 5834 5833 5832 5831 5830 5830 5829 5828 5827 5826 5825 5824 5823 5823 5822 5821 5820 5819 5818 5817 5816 5815 5815 5814 5813 5812 5812 5811 5811 5810 5810 5809 5808 5807 5807 5806 5805 5805 5804 5804 5803 5802 5802 5801 5800 5800 5799 5798 5797 5797 5796 5796 5795 5794 5794 5793 5792 5792 5791 5790 5790 5790 5790 5789
5858 5858 5857 5857 5856 5856 5855 5855 5855 5854 5854 5853 5853 5852 5851 5851 5850 5849 5848 5848 5847 5846 5845 5844 5843 5842 5841 5840 5840 5839 5838 5837 5836 5835 5835 5834 5833 5833 5832 5831 5830 5830 5829 5828 5827 5826 5825 5825 5824 5823 5822 5821 5820 5819 5818 5817 5817 5816 5815 5814 5813 5812 5812 5811 5810 5810 5809 5808 5808 5807 5806 5806 5805 5805 5804 5803 5802 5802 5801 5800 5800 5799 5799 5798 5797 5796 5796 5795 5795 5794 5793 5793 5792 5791 5790 5790 5789 5789 5788 5787 5787 5786 5786
5856 5856 5855 5855 5855 5854 5854 5853 5853 5852 5852 5851 5851 5850 5850 5849 5848 5847 5847 5846 5845 5844 5843 5842 5841 5840 5840 5839 5838 5837 5835 5835 5834 5833 5832 5831 5831 5830 5830 5829 5828 5827 5826 5825 5825 5824 5823 5822 5821 5820 5820 5819 5818 5817 5816 5815 5814 5814 5813 5812 5811 5810 5810 5809 5808 5807 5806 5805 5805 5804 5804 5803 5803 5802 5801 5800 5800 5799 5799 5798 5797 5797 5796 5795 5795 5794 5793 5793 5792 5791 5791 5790 5789 5789 5788 5787 5786 5786 5785 5785 5784 5784 5783
5855 5854 5854 5853 5853 5852 5852 5851 5851 5851 5850 5850 5849 5849 5848 5847 5846 5846 5845 5844 5843 5842 5841 5840 5839 5838 5837 5836 5836 5835 5834 5832 5831 5830 5830 5829 5828 5828 5827 5826 5825 5825 5824 5823 5822 5822 5821 5820 5819 5818 5817 5816 5815 5815 5814 5813 5812 5811 5810 5810 5809 5808 5807 5806 5805 5805 5804 5803 5802 5802 5801 5800 5800 5799 5798 5798 5797 5796 5796 5795 5795 5794 5793 5793 5792 5791 5790 5790 5789 5789 5788 5787 5786 5786 5785 5784 5784 5783 5782 5782 5781 5780 5780
5853 5852 5852 5851 5851 5850 5850 5850 5849 5849 5849 5848 5847 5847 5846 5845 5845 5844 5843 5843 5842 5841 5840 5838 5837 5836 5835 5835 5834 5833 5832 5830 5830 5828 5827 5826 5826 5825 5824 5824 5823 5822 5821 5821 5820 5820 5819 5818 5817 5816 5815 5814 5813 5812 5811 5810 5810 5809 5808 5808 5807 5806 5805 5804 5803 5802 5801 5800 5800 5799 5798 5797 5797 5796 5795 5795 5794 5794 5793 5792 5791 5791 5790 5790 5789 5788 5787 5787 5786 5785 5785 5784 5784 5783 5782 5781 5781 5780 5779 5779 5778 5778 5777
5851 5850 5850 5850 5849 5849 5848 5848 5847 5847 5846 5846 5845 5845 5845 5844 5843 5842 5842 5841 5840 5839 5838 5837 5835 5834 5833 5832 5831 5830 5830 5829 5827 5826 5825 5824 5823 5823 5822 5821 5821 5820 5819 5819 5818 5818 5817 5816 5815 5814 5813 5812 5811 5810 5809 5808 5807 5807 5806 5805 5805 5804 5803 5802 5801 5800 5799 5798 5797 5796 5795 5795 5794 5793 5793 5792 5791 5790 5790 5789 5789 5788 5787 5787 5786 5785 5784 5784 5783 5782 5781 5781 5780 5780 5779 5778 5778 5777 5776 5776 5775 5775 5774
5849 5849 5848 5848 5847 5847 5846 5846 5845 5845 5845 5844 5844 5843 5843 5842 5841 5841 5840 5839 5838 5837 5836 5835 5834 5833 5832 5830 5830 5829 5827 5826 5825 5824 5823 5822 5821 5820 5819 5819 5818 5818 5817 5817 5816 5815 5815 5814 5812 5811 5810 5810 5808 5807 5807 5806 5805 5805 5804 5803 5802 5801 5800 5799 5798 5797 5797 5796 5795 5794 5793 5792 5791 5790 5790 5789 5789 5788 5787 5786 5785 5785 5784 5784 5783 5782 5781 5780 5779 5779 5778 5777 5777 5776 5775 5775 5774 5774 5773 5772 5772 5771 5771
5847 5847 5846 5846 5845 5845 5844 5844 5843 5843 5843 5842 5842 5841 5841 5840 5840 5839 5838 5837 5836 5835 5835 5834 5832 5831 5830 5829 5828 5826 5825 5824 5823 5822 5821 5820 5819 5818 5817 5816 5816 5815 5815 5815 5814 5813 5812 5811 5810 5809 5808 5807 5806 5805 5805 5804 5803 5802 5801 5800 5800 5799 5798 5796 5796 5795 5794 5793 5793 5792 5791 5790 5789 5788 5787 5786 5785 5785 5784 5783 5782 5781 5781 5780 5779 5779 5778 5776 5776 5775 5774 5773 5773 5772 5771 5771 5770 5770 5769 5769 5768 5768 5767
5845 5845 5844 5844 5843 5843 5842 5842 5841 5841 5840 5840 5840 5840 5839 5838 5838 5837 5836 5835 5834 5833 5832 5832 5831 5830 5828 5827 5825 5824 5823 5821 5820 5820 5819 5818 5817 5816 5815 5815 5814 5813 5813 5812 5812 5811 5810 5809 5808 5807 5806 5805 5804 5803 5802 5802 5801 5800 5799 5798 5797 5796 5795 5794 5793 5792 5792 5791 5790 5789 5788 5787 5786 5785 5784 5783 5783 5782 5781 5780 5779 5778 5777 5776 5775 5775 5774 5773 5772 5771 5770 5769 5768 5768 5767 5767 5766 5765 5765 5765 5765 5764 5764
5842 5842 5842 5842 5841 5841 5840 5840 5839 5839 5838 5838 5838 5837 5837 5836 5835 5835 5834 5832 5831 5830 5830 5829 5828 5827 5826 5825 5823 5822 5820 5819 5818 5817 5817 5816 5815 5814 5813 5813 5813 5812 5811 5810 5809 5808 5807 5806 5805 5805 5803 5802 5802 5801 5800 5800 5799 5798 5797 5796 5795 5793 5792 5791 5790 5790 5789 5788 5787 5787 5786 5785 5784 5783 5781 5780 5780 5778 5777 5776 5775 5774 5773 5772 5771 5770 5770 5769 5768 5767 5766 5765 5764 5763 5763 5762 5762 5761 5761 5760 5760 5760 5760
5840 5840 5840 5839 5839 5838 5838 5837 5837 5836 5836 5835 5835 5835 5834 5833 5833 5833 5830 5829 5828 5828 5827 5826 5825 5825 5824 5822 5820 5819 5818 5816 5815 5815 5815 5814 5813 5812 5811 5810 5810 5810 5809 5808 5807 5806 5805 5804 5803 5802 5801 5800 5800 5799 5798 5798 5797 5795 5795 5793 5792 5791 5790 5789 5788 5787 5786 5785 5785 5784 5783 5782 5781 5780 5779 5777 5776 5775 5774 5773 5772 5771 5770 5768 5767 5766 5765 5765 5764 5763 5762 5761 5760 5759 5758 5757 5756 5756 5756 5756 5756 5755 5755
5837 5837 5837 5836 5836 5836 5835 5835 5834 5834 5833 5833 5832 5832 5831 5830 5830 5829 5827 5826 5825 5825 5825 5824 5823 5821 5820 5820 5818 5816 5815 5814 5813 5813 5812 5811 5811 5810 5810 5809 5808 5807 5807 5806 5805 5804 5803 5801 5800 5799 5799 5798 5797 5797 5796 5795 5794 5793 5792 5791 5790 5789 5788 5787 5786 5785 5784 5783 5782 5781 5780 5779 5778 5777 5775 5774 5773 5772 5771 5770 5768 5767 5766 5764 5763 5762 5761 5760 5759 5758 5757 5756 5756 5755 5755 5753 5752 5751 5751 5750 5750 5751 5750
5835 5834 5834 5834 5833 5833 5832 5832 5831 5830 5830 5830 5829 5829 5828 5827 5826 5825 5824 5823 5822 5822 5821 5821 5820 5819 5818 5817 5815 5814 5812 5811 5810 5810 5810 5809 5808 5808 5808 5807 5806 5805 5805 5803 5802 5801 5801 5800 5798 5797 5796 5795 5795 5794 5794 5793 5792 5791 5790 5789 5788 5787 5785 5784 5783 5782 5781 5780 5779 5778 5777 5776 5775 5774 5772 5771 5770 5769 5767 5766 5765 5763 5762 5760 5759 5758 5756 5755 5755 5754 5753 5752 5751 5750 5750 5749 5748 5747 5746 5745 5744 5744 5745
5831 5831 5831 5830 5830 5830 5829 5829 5828 5828 5827 5827 5826 5826 5825 5824 5823 5822 5821 5820 5819 5819 5818 5817 5817 5816 5815 5814 5813 5812 5810 5809 5808 5807 5807 5806 5806 5805 5804 5805 5805 5804 5803 5802 5800 5798 5797 5797 5796 5795 5794 5794 5793 5792 5791 5791 5790 5789 5788 5787 5785 5784 5783 5782 5781 5780 5778 5777 5776 5775 5774 5772 5771 5770 5769 5768 5766 5765 5764 5762 5761 5760 5758 5756 5755 5753 5752 5750 5750 5748 5747 5746 5745 5745 5744 5743 5743 5742 5742 5741 5741 5740 5739
5829 5828 5828 5828 5827 5827 5826 5826 5825 5825 5824 5824 5824 5823 5822 5821 5821 5820 5817 5816 5816 5815 5815 5814 5814 5813 5812 5811 5810 5810 5808 5807 5806 5805 5804 5803 5803 5803 5801 5801 5801 5801 5801 5801 5800 5798 5796 5795 5794 5793 5792 5792 5791 5790 5789 5789 5788 5786 5785 5784 5783 5782 5781 5780 5778 5777 5775 5774 5773 5772 5770 5769 5768 5766 5765 5764 5762 5761 5760 5758 5757 5755 5754 5752 5750 5749 5747 5745 5744 5743 5742 5741 5740 5739 5738 5737 5737 5736 5736 5736 5736 5736 5736
5826 5826 5825 5825 5825 5824 5824 5823 5823 5822 5822 5821 5821 5820 5820 5819 5819 5817 5814 5813 5813 5812 5811 5811 5810 5810 5810 5809 5808 5807 5806 5805 5803 5802 5801 5800 5800 5800 5800 5799 5798 5798 5797 5797 5797 5796 5795 5794 5792 5791 5790 5790 5789 5788 5787 5786 5785 5784 5783 5782 5780 5780 5778 5777 5775 5774 5773 5771 5770 5769 5767 5765 5764 5762 5761 5760 5758 5757 5755 5754 5753 5751 5750 5748 5746 5744 5742 5741 5739 5738 5736 5735 5734 5733 5732 5731 5731 5730 5730 5730 5730 5731 5732
5824 5824 5823 5823 5822 5821 5821 5820 5820 5820 5819 5819 5818 5818 5817 5817 5816 5814 5811 5810 5810 5809 5809 5808 5807 5807 5807 5806 5805 5804 5804 5802 5801 5800 5799 5797 5796 5796 5797 5796 5796 5795 5795 5794 5793 5793 5793 5792 5791 5789 5788 5788 5788 5786 5785 5784 5783 5782 5781 5780 5778 5777 5776 5774 5773 5771 5770 5768 5767 5765 5764 5762 5760 5759 5757 5755 5754 5752 5751 5750 5748 5746 5745 5743 5742 5740 5738 5736 5734 5733 5731 5730 5729 5728 5727 5726 5725 5725 5725 5725 5725 5725 5726
5822 5821 5821 5820 5820 5819 5819 5818 5818 5817 5817 5816 5816 5815 5815 5815 5813 5810 5809 5808 5807 5806 5806 5805 5805 5804 5804 5804 5803 5802 5801 5800 5799 5797 5796 5795 5794 5793 5793 5793 5793 5792 5792 5791 5790 5790 5789 5789 5789 5788 5786 5786 5786 5785 5784 5782 5781 5780 5779 5778 5776 5775 5773 5771 5770 5769 5767 5765 5764 5762 5760 5759 5757 5755 5753 5751 5750 5748 5747 5745 5744 5742 5740 5739 5737 5735 5733 5731 5730 5728 5726 5725 5724 5723 5722 5721 5720 5720 5719 5718 5718 5718 5719
5820 5819 5819 5818 5817 5817 5816 5815 5815 5815 5814 5814 5813 5813 5812 5812 5810 5808 5807 5806 5805 5804 5803 5802 5802 5802 5801 5800 5800 5800 5799 5797 5796 5795 5793 5792 5792 5791 5791 5790 5789 5789 5789 5788 5787 5787 5786 5785 5785 5785 5785 5784 5784 5783 5783 5781 5779 5777 5775 5775 5774 5772 5770 5769 5767 5765 5764 5762 5761 5759 5757 5755 5754 5752 5750 5748 5746 5745 5743 5741 5740 5738 5736 5734 5733 5731 5729 5727 5725 5723 5721 5720 5719 5718 5717 5716 5715 5714 5713 5712 5712 5712 5712
5817 5817 5816 5816 5815 5815 5814 5813 5813 5812 5811 5811 5810 5810 5809 5808 5807 5806 5805 5804 5802 5801 5800 5800 5799 5799 5799 5798 5798 5797 5796 5795 5794 5793 5791 5790 5789 5789 5789 5787 5786 5786 5786 5785 5784 5784 5783 5782 5782 5782 5783 5782 5781 5780 5780 5779 5777 5775 5773 5771 5770 5769 5767 5765 5764 5762 5760 5759 5757 5755 5754 5752 5750 5749 5747 5745 5743 5741 5739 5737 5735 5734 5732 5730 5728 5726 5724 5722 5720 5718 5717 5715 5714 5712 5711 5710 5710 5709 5708 5707 5706 5706 5706
5815 5815 5814 5813 5813 5812 5811 5811 5810 5810 5809 5808 5807 5807 5806 5805 5805 5804 5803 5801 5800 5799 5798 5797 5797 5796 5796 5796 5795 5794 5793 5792 5791 5790 5790 5788 5786 5786 5786 5785 5784 5784 5783 5782 5781 5780 5780 5780 5779 5779 5780 5780 5779 5779 5777 5776 5775 5773 5771 5769 5767 5765 5763 5762 5760 5759 5757 5755 5754 5752 5750 5749 5747 5745 5743 5741 5739 5737 5735 5733 5731 5729 5727 5725 5723 5721 5719 5717 5715 5713 5711 5710 5709 5707 5706 5705 5704 5703 5702 5701 5701 5701 5701
5813 5812 5812 5811 5810 5810 5809 5808 5808 5807 5806 5805 5805 5804 5804 5803 5802 5801 5800 5799 5797 5796 5796 5795 5794 5793 5793 5793 5792 5791 5790 5789 5788 5787 5787 5786 5784 5783 5783 5783 5782 5781 5781 5780 5779 5778 5777 5777 5776 5776 5776 5776 5776 5776 5775 5774 5772 5770 5768 5766 5765 5763 5761 5759 5757 5755 5754 5753 5751 5749 5747 5745 5743 5741 5740 5737 5735 5733 5731 5729 5727 5725 5723 5720 5719 5716 5714 5712 5710 5708 5706 5705 5703 5702 5700 5699 5698 5697 5697 5696 5695 5695 5695